Regional Weather Roundup
Issued by NWS

Home | Current Version | Previous Version | Graphics & Text | Print | Product List | Glossary On
Versions: 1 2 3 4 5 6 7 8 9 10 11 12 13 14 15 16 17 18 19 20 21 22 23 24 25 26 27 28 29 30 31 32 33 34 35 36 37 38 39 40 41 42 43 44 45 46 47 48 49 50
000
ASUS43 KMKX 252211
RWRWI

WISCONSIN REGIONAL WEATHER ROUNDUP
NATIONAL WEATHER SERVICE MILWAUKEE/SULLIVAN WI
500 PM CDT MON JUL 25 2016

NOTE: "FAIR" INDICATES FEW OR NO CLOUDS BELOW 12,000 FEET WITH NO
SIGNIFICANT WEATHER AND/OR OBSTRUCTIONS TO VISIBILITY.

WIZ001-002-006>008-014>016-023>028-252300-
NORTHWEST WISCONSIN

CITY           SKY/WX    TMP DP  RH WIND       PRES   REMARKS
SUPERIOR ARPT  MOSUNNY   85  62  45 W9G17     29.97S HX  85
ASHLAND        SUNNY     84  59  42 NW12      29.99F HX  84
HAYWARD        PTSUNNY   82  60  47 VRB7      30.02F HX  82
SIREN          SUNNY     82  61  47 NW8       30.02F HX  83
CUMBERLAND     SUNNY     79  59  50 W7        30.03S HX  80
RICE LAKE      MOSUNNY   81  60  48 W9        30.04S HX  81
CHETEK         MOSUNNY   82  62  50 NW3       30.03S HX  83
LADYSMITH      MOSUNNY   80  61  51 W8        30.04S HX  81
EAU CLAIRE     MOSUNNY   84  60  44 NW6       30.01F HX  84
MENOMONIE      SUNNY     85  60  42 NW13      30.02F HX  85
NEW RICHMOND   MOSUNNY   84  58  42 NW9       30.03F HX  83
OSCEOLA        SUNNY     84  61  45 NW7       30.05S HX  84
$$

WIZ003>005-009-010-017-018-252300-
NORTH CENTRAL WISCONSIN

CITY           SKY/WX    TMP DP  RH WIND       PRES   REMARKS
MANITOWISH WTR MOSUNNY   79  58  48 NW12      30.02S HX  80
ARBOR VITAE    MOSUNNY   80  56  43 NW9       30.02S HX  80
WOODRUFF       MOSUNNY   80  56  43 NW9       30.02S HX  80
RHINELANDER    MOSUNNY   81  56  42 NW9       30.02S HX  81
EAGLE RIVER    SUNNY     79  52  39 NW12      30.01S
LAND O LAKES   SUNNY     80  53  39 N8        30.02S HX  80
PHILLIPS       MOSUNNY   80  61  52 NW5       30.02S HX  81
TOMAHAWK       SUNNY     80  57  46 NW9       30.02S HX  80
MEDFORD        MOSUNNY   78  60  53 NW9       30.03S
MERRILL        SUNNY     81  60  48 NW9G17    30.02R HX  81
$$

WIZ029-030-035-036-043>047-252300-
CENTRAL WISCONSIN

CITY           SKY/WX    TMP DP  RH WIND       PRES   REMARKS
WAUSAU         MOSUNNY   82  58  43 W17G23    30.00R HX  82
MOSINEE        MOSUNNY   81  57  44 NW12      30.02S HX  81
MARSHFIELD     SUNNY     82  59  45 NW12      30.02S HX  82
STEVENS POINT  SUNNY     81  59  47 NW9       30.01S HX  81
WAUPACA        PTSUNNY   87  59  38 NW8       29.99S HX  86
WAUTOMA        SUNNY     83  61  47 NW8       30.00S HX  83
WISC RAPIDS    SUNNY     84  57  39 NW9       30.02S HX  83
CAMP DOUGLAS   MOSUNNY   82  64  54 NW9       30.02S HX  84
$$

WIZ011>013-019>022-031-037>040-048>050-252300-
NORTHEAST WISCONSIN

CITY           SKY/WX    TMP DP  RH WIND       PRES   REMARKS
ANTIGO         SUNNY     80  59  49 NW9       30.02S HX  80
SHAWANO        MOSUNNY   85  59  41 NW8       29.97S HX  85
OCONTO         SUNNY     83  61  47 NW6       29.95S HX  84
STURGEON BAY   SUNNY     84  61  45 NW9       29.96S HX  84
GREEN BAY      MOSUNNY   84  64  50 W12G17    29.97R HX  85
MANITOWOC      MOSUNNY   83  63  50 MISG      29.97S HX  84
APPLETON       PTSUNNY   81  55  41 NW8       29.98R HX  80
CLINTONVILLE   SUNNY     84  54  34 NW13      29.98S HX  83
OSHKOSH        MOSUNNY   84  62  47 NW7       29.98S HX  85
$$

WIZ032>034-041-042-053>061-252300-
SOUTHWEST WISCONSIN

CITY           SKY/WX    TMP DP  RH WIND       PRES   REMARKS
LA CROSSE      SUNNY     85  62  46 NW12      30.01F HX  85
SPARTA         MOSUNNY   83  62  49 NW7       30.02F HX  84
VIROQUA        MOSUNNY   80  63  54 N7        30.05S HX  82
BOSCOBEL       MOSUNNY   87  64  46 VRB6      30.01F HX  88
PRAIRIE DU CHI SUNNY     83  58  42 NW9       30.01F HX  83
PLATTEVILLE    MOSUNNY   81  63  54 N3        30.03S HX  82
$$

WIZ056-057-062-063-064-067-068-252300-
SOUTH CENTRAL WISCONSIN

CITY           SKY/WX    TMP DP  RH WIND       PRES   REMARKS
REEDSBURG      MOSUNNY   83  64  52 N6        30.00F HX  84
BARABOO/DELLS  MOSUNNY   82  60  46 W8        30.02S HX  83
LONE ROCK      SUNNY     83  63  50 NW7       30.01F HX  84
MINERAL POINT  SUNNY     82  59  44 N7        30.03F HX  82
MADISON        PTSUNNY   85  63  47 NW6       30.00S HX  86
MIDDLETON      MOSUNNY   82  64  54 N6        30.01F HX  83
WATERTOWN      MOSUNNY   82  64  54 NW7       30.00R HX  84
MONROE         SUNNY     82  61  47 NW6       30.01F HX  83
JANESVILLE     MOSUNNY   84  63  48 NW6       29.99F HX  85
$$

WIZ051-052-058>065-066-070>072-252300-
SOUTHEAST WISCONSIN

CITY           SKY/WX    TMP DP  RH WIND       PRES   REMARKS
MILWAUKEE      PTSUNNY   82  63  52 SE7       29.98S HX  83
WAUKESHA       MOSUNNY   82  61  47 NW14      30.01S HX  83
MILWAUKEE/TIMM MOSUNNY   84  55  37 NW12      29.99S HX  83
RACINE         MOSUNNY   83  64  52 SE7       30.00S HX  84
BURLINGTON     MOSUNNY   85  62  46 NW8       29.99S HX  85
KENOSHA        MOSUNNY   84  65  52 E9        29.99S HX  86
FOND DU LAC    MOSUNNY   85  62  46 NW15      29.99S HX  85
SHEBOYGAN      SUNNY     83  63  50 W6        29.98S HX  84
WEST BEND      SUNNY     82  59  44 NW7       29.99S HX  82
JUNEAU         SUNNY     80  63  54 NW6       30.01S HX  81
$$

LSZ147-162-252300-
LAKE SUPERIOR

STATION/POSITION TIME  TEMP    WIND        PRES    WAVE
                       AIR SEA DIR/SP/G            HT/PER
                 (UTC) (F)     (DEG/KT/KT) (MB)    (FT/S)
W MID LAKE BUOY  2150   64 60  230/  8/  8 1013.7F   2/ 4
DEVILS ISLAND    2200   73     230/ 10/ 13 1014.4S
SAXON HARBOR     2100   80      60/  3/  4 1015.2F
$$

LMZ867-665-643>646-252300-
LAKE MICHIGAN

STATION/POSITION TIME  TEMP    WIND        PRES    WAVE
                       AIR SEA DIR/SP/G            HT/PER
                 (UTC) (F)     (DEG/KT/KT) (MB)    (FT/S)
CHAMBERS ISLAND  2100   83     300/  4/  9 1013.5S
S GREEN BAY BUOY 2100   79 75  290/  8/ 10   N/A
N MID LAKE BUOY  2150   73 71  240/  4/  6 1013.2R   1/ 5
NORTHPORT PIER   2100   80     310/  5/  9 1013.5S
SISTER BAY       2106   79     340/  6/  6   N/A
ALGOMA LAKESHORE 2113          320/ 13/ 16   N/A
KEWAUNEE LAKESHO 2100   83     330/  8/ 12 1013.9F
SHEBOYGAN LAKESH 2200   82     310/ 11/ 15 1014.7F
PORT WASHINGTON  2200   85     160/  8/ 15 1015.6
ATWATER BUOY     2100   67 56  180/  6/  8 1017.1R
MILWAUKEE LAKESH 2110   72     140/ 10/ 11   N/A
S MID LAKE BUOY  2150   76 76  180/  4/  4 1014.8F   1
KENOSHA   LAKESH 2200   77     160/  6/  8 1014.9S
$$

TC  - TEMPERATURE IN CELSIUS
VSB - VISIBILITY IN STATUTE MILES
WCI - WIND CHILL INDEX
HX  - HEAT INDEX





USA.gov is the U.S. government's official web portal to all federal, state and local government web resources and services.